Location: Willingham
(52.3167°N, 0.0667°E)
Time: 06:09:33
(UTC+00:00)

Cosmos 2221 - Pass Details

Date: 19 May 2025
Orbit: 572 x 593 km, 82.5° (Epoch: 13 June)

Event Time Altitude Azimuth Distance (km) Brightness Sun altitude
Exits shadow 21:37:24 16° 165° (SSE) 1,541 4.0 -11.7°
Maximum altitude 21:40:30 49° 95° (E) 757 2.8 -11.9°
Drops below altitude 10° 21:44:32 10° 20° (NNE) 1,897 5.6 -12.2°
Sets 21:46:47 0° 15° (NNE) 2,798 6.6 -12.4°
